Starlink 31086

operational
NORAD ID: 58626 Int'l Des: 2023-203 Owner: SPXS Country: US Constellation: starlink
LEOCIRCULAR

关于 Starlink 31086

正在加载描述...

实时位置

正在加载3D地球...

即将过境

高度历史

Altitude vs Time

uPlot chart will show altitude changes over time

两行轨道根数

1 58626U 23203J 25352.53097078 -.00011314 00000-0 -40192-3 0 9994
2 58626 42.9988 165.0558 0000127 327.1056 32.9788 15.27607719111154
Epoch: Dec 18, 2025 • Age: 16 hours

当前状态

高度 482.2 km
速度 7.63 km/s
星下点 17.03°N, 157.43°E
发射日期 Dec 23, 2023
运行时间 1.9 years
类型 internet

技术详情

分类 Payload
质量 730.00 kg
干质量 700.00 kg
总质量 730.00 kg
长度 0.30 m
直径 4.10 m
跨度 29.00 m
形状 Box + pan
制造商 SPXS
平台类型 Starlink V2M
阶段状态 In Orbit
所有者/国家 SPXS/US

大型星座

Loading constellations...